Location: Rounton
(54.4000°N, 1.3500°W)
Time: 07:57:53
(UTC+00:00)

Transit 2A - All Passes

Search period start: 25 February 2024 00:00
Search period end: 06 March 2024 00:00
Orbit: 600 x 953 km, 66.7° (Epoch: 24 February)

Date Brightness Start Highest point End Pass type
(mag) Time Alt. Az. Time Alt. Az. Time Alt. Az.
25 Feb - 01:37:01 10° NNW 01:40:41 23° NNE 01:44:35 10° ENE visible
25 Feb - 03:19:57 10° NW 03:24:35 63° NE 03:29:39 10° SE visible
25 Feb - 05:03:19 10° WNW 05:07:27 29° WSW 05:11:56 10° S visible
25 Feb - 19:49:13 10° SSW 19:53:20 44° ESE 19:57:31 10° NE visible
25 Feb - 21:32:23 10° WSW 21:36:28 39° NW 21:40:42 10° NE visible
25 Feb - 23:17:34 10° NW 23:20:44 19° N 23:24:01 10° NE night (unlit)
26 Feb - 01:01:57 10° NNW 01:05:24 21° NNE 01:09:02 10° ENE night (unlit)
26 Feb - 02:44:57 10° NW 02:49:29 49° NE 02:54:25 10° ESE visible
26 Feb - 04:28:06 10° NW 04:32:33 40° WSW 04:37:25 10° S visible
26 Feb - 19:14:37 10° S 19:18:27 31° ESE 19:22:20 10° NE visible
26 Feb - 20:57:06 10° WSW 21:01:20 51° NW 21:05:43 10° NE visible
26 Feb - 22:42:05 10° WNW 22:45:25 20° NNW 22:48:51 10° NNE visible
27 Feb - 00:26:48 10° NW 00:30:04 19° N 00:33:30 10° ENE night (unlit)
27 Feb - 02:09:58 10° NW 02:14:20 39° NE 02:19:03 10° ESE visible
27 Feb - 03:52:58 10° NW 03:57:37 55° SW 04:02:43 10° SSE visible
27 Feb - 05:38:36 10° W 05:39:52 11° WSW 05:41:09 10° WSW visible
27 Feb - 18:40:16 10° SSE 18:43:37 22° ESE 18:47:00 10° ENE visible
27 Feb - 20:21:56 10° SW 20:26:15 68° NW 20:30:42 10° NE visible
27 Feb - 22:06:36 10° WNW 22:10:07 23° NNW 22:13:46 10° NNE visible
27 Feb - 23:51:36 10° NW 23:54:44 18° N 23:58:00 10° NE night (unlit)
28 Feb - 01:34:59 10° NNW 01:39:09 32° NNE 01:43:38 10° E night (unlit)
28 Feb - 03:17:54 10° NW 03:22:38 75° SW 03:27:50 10° SSE visible
28 Feb - 05:02:11 10° WNW 05:05:06 16° WSW 05:08:09 10° SW visible
28 Feb - 18:06:16 10° SE 18:08:49 15° ESE 18:11:24 10° ENE daylight
28 Feb - 19:46:52 10° SW 19:51:12 88° SE 19:55:40 10° NE visible
28 Feb - 21:31:07 10° W 21:34:50 26° NNW 21:38:42 10° NNE visible
28 Feb - 23:16:18 10° NW 23:19:23 18° N 23:22:35 10° NE visible
29 Feb - 00:59:58 10° NNW 01:03:55 27° NNE 01:08:07 10° E night (unlit)
29 Feb - 02:42:52 10° NW 02:47:37 83° NE 02:52:49 10° SE night (unlit)
29 Feb - 04:26:35 10° WNW 04:30:17 22° WSW 04:34:15 10° SSW night (unlit)
29 Feb - 17:33:21 10° ESE 17:34:05 10° ESE 17:34:49 10° E daylight
29 Feb - 19:11:56 10° SSW 19:16:13 63° SE 19:20:36 10° NE visible
29 Feb - 20:55:41 10° W 20:59:36 32° NNW 21:03:41 10° NNE visible
29 Feb - 22:40:55 10° NW 22:44:01 18° N 22:47:15 10° NE visible
01 Mar - 00:24:56 10° NNW 00:28:39 23° NNE 00:32:36 10° ENE night (unlit)
01 Mar - 02:07:52 10° NW 02:12:33 63° NE 02:17:41 10° SE night (unlit)
01 Mar - 03:51:14 10° WNW 03:55:26 30° WSW 03:59:59 10° S night (unlit)
01 Mar - 18:37:09 10° SSW 18:41:16 44° ESE 18:45:29 10° NE visible
01 Mar - 20:20:19 10° WSW 20:24:25 39° NW 20:28:40 10° NE visible
01 Mar - 22:05:29 10° WNW 22:08:41 19° N 22:12:00 10° NE visible
01 Mar - 23:49:51 10° NW 23:53:21 21° NNE 23:57:02 10° ENE visible
02 Mar - 01:32:52 10° NW 01:37:26 49° NE 01:42:25 10° ESE night (unlit)
02 Mar - 03:16:01 10° NW 03:20:31 41° WSW 03:25:27 10° S night (unlit)
02 Mar - 18:02:33 10° S 18:06:23 31° ESE 18:10:16 10° NE daylight
02 Mar - 19:45:02 10° WSW 19:49:16 51° NW 19:53:40 10° NE visible
02 Mar - 21:30:00 10° WNW 21:33:21 21° NNW 21:36:50 10° NE visible
02 Mar - 23:14:42 10° NW 23:18:01 19° N 23:21:30 10° ENE visible
03 Mar - 00:57:53 10° NW 01:02:17 39° NE 01:07:04 10° ESE night (unlit)
03 Mar - 02:40:53 10° NW 02:45:35 56° SW 02:50:45 10° SSE night (unlit)
03 Mar - 04:26:21 10° W 04:27:49 11° WSW 04:29:20 10° WSW night (unlit)
03 Mar - 17:28:12 10° SSE 17:31:32 22° ESE 17:34:56 10° ENE daylight
03 Mar - 19:09:51 10° SW 19:14:10 69° NW 19:18:39 10° NE visible
03 Mar - 20:54:29 10° WNW 20:58:02 23° NNW 21:01:44 10° NNE visible
03 Mar - 22:39:29 10° NW 22:42:40 18° N 22:46:00 10° NE visible
04 Mar - 00:22:53 10° NNW 00:27:05 32° NNE 00:31:37 10° E visible
04 Mar - 02:05:48 10° NW 02:10:35 76° SW 02:15:52 10° SSE night (unlit)
04 Mar - 03:50:03 10° WNW 03:53:04 16° WSW 03:56:13 10° SSW night (unlit)
04 Mar - 16:54:12 10° SE 16:56:45 15° ESE 16:59:19 10° ENE daylight
04 Mar - 18:34:47 10° SW 18:39:07 88° SE 18:43:37 10° NE visible
04 Mar - 20:19:01 10° W 20:22:45 27° NNW 20:26:40 10° NNE visible
04 Mar - 22:04:11 10° NW 22:07:18 18° N 22:10:34 10° NE visible
04 Mar - 23:47:51 10° NNW 23:51:52 27° NNE 23:56:07 10° E visible
05 Mar - 01:30:46 10° NW 01:35:33 83° NE 01:40:50 10° SE night (unlit)
05 Mar - 03:14:27 10° WNW 03:18:14 22° WSW 03:22:17 10° SSW night (unlit)
05 Mar - 16:21:20 10° ESE 16:22:01 10° ESE 16:22:42 10° E daylight
05 Mar - 17:59:50 10° SSW 18:04:07 63° SE 18:08:32 10° NE daylight
05 Mar - 19:43:34 10° W 19:47:30 32° NNW 19:51:38 10° NE visible
05 Mar - 21:28:48 10° NW 21:31:56 18° N 21:35:14 10° NE visible
05 Mar - 23:12:48 10° NNW 23:16:34 24° NNE 23:20:34 10° ENE visible
